Tracking 17752 objects as of 2-July-2016
HD Live streaming from Space Station
objects crossing your sky now

RIGIDSPHERE 2 (LCS 4)

Track RIGIDSPHERE 2 (LCS 4) now!
10-day predictions
RIGIDSPHERE 2 (LCS 4) is classified as:


NORAD ID: 5398
Int'l Code: 1971-067E
Perigee: 741.8 km
Apogee: 832.9 km
Inclination: 87.6 °
Period: 100.5 minutes
Semi major axis: 7158 km
RCS: 0.9311 m2 (medium)
Launch date: August 7, 1971
Source: United States (US)
Launch site: AIR FORCE WESTERN TEST RANGE (AFWTR)
Your satellite tracking list
Your tracking list is empty





NASA's NSSDC Master Catalog

Two Line Element Set (TLE):
1  5398U 71067E   16182.91575516 +.00000149 +00000-0 +46385-4 0  9997
2  5398 087.6233 263.0903 0063653 006.2039 353.9931 14.33449982352248
Source of the keplerian elements: AFSPC

N2YO: 1149